sat.trackr.live / text

‹ back to catalog

STARLINK-4425

NORAD 53208 · 2022-084V

PAYLOAD ACTIVE UNKNOWN

§ Identity

Operator
Country
US
Launch date
2022-07-22
Launch site
AFWTR
Launch vehicle
Mass (kg)
RCS (m²)

Purposes: comms

External: N2YO · Heavens-Above · Gunter

§ Orbital elements

Epoch: 2026-09-20T04:00:03.000096Z

Period
93.22 min
Inclination
97.2868°
Eccentricity
0.0001371
Mean motion
15.44754023 rev/d
Perigee alt
431.2 km
Apogee alt
433.0 km
Semi-major
6,810.2 km
B*
1.5557e-2
RAAN
318.0105°
Arg perigee
88.3635°
Mean anomaly
28.1318°
Rev number
584

§ Raw data

STARLINK-44251 53208U 22084V   26263.16670139  .00792809  00000+0  15557-1 0  99942 53208  97.2868 318.0105 0001371  88.3635  28.1318 15.44754023  5848

JSON: /api/v1/satellites/53208 · /tle

For live sub-satellite position, see the globe view (requires WebGL).

§ Visibility from observer

Set your observer location to see the next 7 days of passes ≥ 10°. The values pass through the URL so the page stays shareable.

No JS? Fill the form by hand. The geolocation button needs JavaScript.